Hourly Data Report for May 25, 2006

TORONTO CITY
ONTARIO

43°40'00.000" N
79°24'00.000" W
112.50 m
6158355
71508
XTO

Download Data

Hourly Data (May 2006)
Hourly Data Report for May 25, 2006
TIME
LST
Temp Definition
°C
Dew Point Definition
°C
Rel Hum Definition
%
Precip. Amount Definition
mm

Wind Dir Definition
10's deg

Wind Spd Definition
km/h
Visibility Definition
km
Stn Press Definition
kPa
Hmdx Definition


Wind Chill Definition


Weather Definition


00:00 16.3 8.6 60   LegendMM LegendMM   99.72     LegendNANA
01:00 14.3 8.1 66   LegendMM LegendMM   99.68     LegendNANA
02:00 12.8 7.9 72   LegendMM LegendMM   99.60     LegendNANA
03:00 13.2 7.7 69   LegendMM LegendMM   99.57     LegendNANA
04:00 13.6 6.9 64   LegendMM LegendMM   99.52     LegendNANA
05:00 13.5 7.5 67   LegendMM LegendMM   99.51     LegendNANA
06:00 14.2 7.9 66   LegendMM LegendMM   99.52     LegendNANA
07:00 15.3 7.9 61   LegendMM LegendMM   99.51     LegendNANA
08:00 16.3 8.4 59   LegendMM LegendMM   99.48     LegendNANA
09:00 16.0 8.8 62   LegendMM LegendMM   99.45     LegendNANA
10:00 16.0 9.6 66   LegendMM LegendMM   99.46     LegendNANA
11:00 17.9 10.3 61   LegendMM LegendMM   99.39     LegendNANA
12:00 18.8 10.9 60   LegendMM LegendMM   99.35     LegendNANA
13:00 19.6 12.5 64   LegendMM LegendMM   99.29     LegendNANA
14:00 19.1 11.6 62   LegendMM LegendMM   99.28     LegendNANA
15:00 18.7 12.2 66   LegendMM LegendMM   99.22     LegendNANA
16:00 19.2 11.6 61   LegendMM LegendMM   99.14     LegendNANA
17:00 18.3 11.6 65   LegendMM LegendMM   99.05     LegendNANA
18:00 17.7 11.2 66   LegendMM LegendMM   98.99     LegendNANA
19:00 17.2 11.2 68   LegendMM LegendMM   98.97     LegendNANA
20:00 16.5 10.9 69   LegendMM LegendMM   98.98     LegendNANA
21:00 16.2 10.7 70   LegendMM LegendMM   99.02     LegendNANA
22:00 16.8 11.6 71   LegendMM LegendMM   99.00     LegendNANA
23:00 17.0 11.5 70   LegendMM LegendMM   98.96     LegendNANA

Notes on Data Quality.

Legend

  • E = Estimated
  • M = Missing
  • NA = Not Available*
  • [empty] = Indicates an unobserved value
Date modified: